Cosmos 1452 Rocket - Orbit

View from above orbital plane
View from above orbital plane
View from above satellite
View from above satellite

Ground track
Ground track

The orbit data is extracted from the following two-line orbital elements,

1 13992U 83031B   13137.18505411  .00000181  00000-0  71823-4 0  1356
2 13992 074.0540 222.6990 0005535 226.5654 164.1371 14.35548467574662
Epoch (UTC): 17 May 2013 04:26:28
Eccentricity: 0.0005535
inclination: 74.0540°
perigee height: 769 km
apogee height: 777 km
right ascension of ascending node: 222.6990°
argument of perigee: 226.5654°
revolutions per day: 14.35548467
mean anomaly at epoch: 164.1371°
orbit number at epoch: 57466

The dashed part of the orbit path shows where the satellite is in the earth's shadow,  

Developed and maintained by Chris Peat, Heavens-Above GmbH. Please read the updated FAQ before sending e-mail. Imprint. DLR